| time (UTC) | temp F | wind direction | speed MPH | gust MPH | rain 1hr in | rain 24hr in | rain mn in | humidity % | barometer mb |
| 20260503014504 | 45 | 0 | 0.0 | 0.0 | 0.00 | 0.00 | 0.00 | 52 | 1017.5 |
| 20260503014005 | 46 | 0 | 0.0 | 0.0 | 0.00 | 0.00 | 0.00 | 51 | 1017.5 |
| 20260503013503 | 46 | 0 | 0.0 | 0.0 | 0.00 | 0.00 | 0.00 | 49 | 1017.5 |
| 20260503013003 | 46 | 0 | 0.0 | 0.0 | 0.00 | 0.00 | 0.00 | 49 | 1017.4 |
| 20260503012503 | 47 | 0 | 0.0 | 0.0 | 0.00 | 0.00 | 0.00 | 47 | 1017.4 |
| 20260503012004 | 47 | 0 | 0.0 | 0.0 | 0.00 | 0.00 | 0.00 | 47 | 1017.4 |
| 20260503011503 | 48 | 0 | 0.0 | 0.0 | 0.00 | 0.00 | 0.00 | 48 | 1017.4 |
| 20260503011004 | 48 | 0 | 0.0 | 0.0 | 0.00 | 0.00 | 0.00 | 46 | 1017.3 |
| 20260503010503 | 49 | 0 | 0.0 | 0.0 | 0.00 | 0.00 | 0.00 | 45 | 1017.3 |
| 20260503010004 | 49 | 322 | 0.0 | 1.0 | 0.00 | 0.00 | 0.00 | 45 | 1017.2 |
| 20260503005504 | 50 | 321 | 0.0 | 1.0 | 0.00 | 0.00 | 0.00 | 45 | 1017.2 |
| 20260503005003 | 50 | 322 | 1.0 | 3.0 | 0.00 | 0.00 | 0.00 | 44 | 1017.2 |
| 20260503004503 | 50 | 322 | 1.0 | 3.0 | 0.00 | 0.00 | 0.00 | 44 | 1017.3 |
| 20260503004004 | 51 | 322 | 1.0 | 5.0 | 0.00 | 0.00 | 0.00 | 42 | 1017.3 |
| 20260503003504 | 51 | 321 | 2.0 | 5.0 | 0.00 | 0.00 | 0.00 | 40 | 1017.3 |
| 20260503003003 | 51 | 321 | 2.0 | 5.0 | 0.00 | 0.00 | 0.00 | 38 | 1017.3 |
| 20260503002503 | 51 | 321 | 1.0 | 4.0 | 0.00 | 0.00 | 0.00 | 38 | 1017.2 |
| 20260503002004 | 51 | 316 | 2.0 | 9.0 | 0.00 | 0.00 | 0.00 | 39 | 1017.2 |
| 20260503001504 | 51 | 312 | 4.0 | 9.0 | 0.00 | 0.00 | 0.00 | 38 | 1017.2 |
| 20260503001003 | 51 | 311 | 3.0 | 10.0 | 0.00 | 0.00 | 0.00 | 37 | 1017.1 |
| 20260503000503 | 51 | 314 | 3.0 | 10.0 | 0.00 | 0.00 | 0.00 | 37 | 1017.1 |
| 20260503000003 | 51 | 318 | 3.0 | 10.0 | 0.00 | 0.00 | 0.00 | 37 | 1017.1 |
| 20260502235503 | 51 | 320 | 3.0 | 11.0 | 0.00 | 0.00 | 0.00 | 36 | 1017.1 |
| 20260502235004 | 51 | 320 | 3.0 | 12.0 | 0.00 | 0.00 | 0.00 | 36 | 1017.0 |
| 20260502234504 | 51 | 320 | 3.0 | 12.0 | 0.00 | 0.00 | 0.00 | 37 | 1017.0 |
| 20260502234004 | 51 | 318 | 3.0 | 8.0 | 0.00 | 0.00 | 0.00 | 36 | 1017.0 |
| 20260502233503 | 51 | 318 | 3.0 | 11.0 | 0.00 | 0.00 | 0.00 | 36 | 1017.0 |
| 20260502233004 | 52 | 320 | 2.0 | 11.0 | 0.00 | 0.00 | 0.00 | 36 | 1016.9 |
| 20260502232504 | 52 | 324 | 1.0 | 8.0 | 0.00 | 0.00 | 0.00 | 36 | 1017.0 |
| 20260502232004 | 52 | 325 | 0.0 | 8.0 | 0.00 | 0.00 | 0.00 | 36 | 1016.9 |
| 20260502231503 | 52 | 326 | 1.0 | 8.0 | 0.00 | 0.00 | 0.00 | 37 | 1017.0 |
| 20260502231003 | 52 | 334 | 1.0 | 8.0 | 0.00 | 0.00 | 0.00 | 36 | 1017.0 |
| 20260502230504 | 52 | 338 | 1.0 | 6.0 | 0.00 | 0.00 | 0.00 | 36 | 1017.2 |
| 20260502230006 | 52 | 328 | 2.0 | 9.0 | 0.00 | 0.00 | 0.00 | 35 | 1017.1 |
| 20260502225504 | 52 | 323 | 2.0 | 11.0 | 0.00 | 0.00 | 0.00 | 34 | 1017.2 |
| 20260502225004 | 53 | 324 | 1.0 | 11.0 | 0.00 | 0.00 | 0.00 | 34 | 1017.1 |
| 20260502224503 | 53 | 316 | 3.0 | 18.0 | 0.00 | 0.00 | 0.00 | 35 | 1017.1 |
| 20260502224003 | 52 | 313 | 4.0 | 18.0 | 0.00 | 0.00 | 0.00 | 36 | 1017.2 |
| 20260502223507 | 52 | 312 | 3.0 | 11.0 | 0.00 | 0.00 | 0.00 | 35 | 1017.1 |
| 20260502223004 | 53 | 314 | 2.0 | 11.0 | 0.00 | 0.00 | 0.00 | 35 | 1017.2 |
| 20260502222504 | 53 | 318 | 1.0 | 11.0 | 0.00 | 0.00 | 0.00 | 35 | 1017.1 |
| 20260502222004 | 53 | 323 | 1.0 | 8.0 | 0.00 | 0.00 | 0.00 | 34 | 1017.2 |
| 20260502221503 | 53 | 335 | 1.0 | 8.0 | 0.00 | 0.00 | 0.00 | 36 | 1017.2 |
| 20260502221003 | 54 | 14 | 0.0 | 5.0 | 0.00 | 0.00 | 0.00 | 34 | 1017.2 |
| 20260502220503 | 54 | 334 | 0.0 | 7.0 | 0.00 | 0.00 | 0.00 | 34 | 1017.1 |
| 20260502220004 | 54 | 323 | 1.0 | 9.0 | 0.00 | 0.00 | 0.00 | 32 | 1017.1 |
| 20260502215504 | 54 | 320 | 0.0 | 9.0 | 0.00 | 0.00 | 0.00 | 34 | 1017.1 |
| 20260502215003 | 54 | 301 | 1.0 | 9.0 | 0.00 | 0.00 | 0.00 | 35 | 1017.0 |
| 20260502214503 | 53 | 309 | 4.0 | 12.0 | 0.00 | 0.00 | 0.00 | 38 | 1017.0 |
| 20260502214004 | 53 | 314 | 5.0 | 12.0 | 0.00 | 0.00 | 0.00 | 35 | 1017.1 |
| 20260502213504 | 53 | 313 | 4.0 | 11.0 | 0.00 | 0.00 | 0.00 | 35 | 1017.1 |
| 20260502213003 | 54 | 317 | 4.0 | 17.0 | 0.00 | 0.00 | 0.00 | 34 | 1017.1 |
| 20260502212503 | 54 | 320 | 3.0 | 17.0 | 0.00 | 0.00 | 0.00 | 34 | 1017.0 |
| 20260502212003 | 54 | 313 | 0.0 | 11.0 | 0.00 | 0.00 | 0.00 | 34 | 1017.0 |
| 20260502211504 | 54 | 318 | 2.0 | 11.0 | 0.00 | 0.00 | 0.00 | 35 | 1017.0 |
| 20260502211004 | 54 | 313 | 5.0 | 14.0 | 0.00 | 0.00 | 0.00 | 34 | 1017.0 |
| 20260502210503 | 55 | 309 | 4.0 | 17.0 | 0.00 | 0.00 | 0.00 | 36 | 1016.9 |
| 20260502210003 | 54 | 313 | 2.0 | 17.0 | 0.00 | 0.00 | 0.00 | 35 | 1016.9 |
| 20260502205504 | 54 | 324 | 2.0 | 11.0 | 0.00 | 0.00 | 0.00 | 37 | 1017.0 |
| 20260502205003 | 55 | 325 | 1.0 | 11.0 | 0.00 | 0.00 | 0.00 | 35 | 1017.1 |
| 20260502204504 | 54 | 332 | 1.0 | 8.0 | 0.00 | 0.00 | 0.00 | 36 | 1017.0 |
| 20260502204004 | 54 | 320 | 2.0 | 9.0 | 0.00 | 0.00 | 0.00 | 35 | 1017.1 |
| 20260502203503 | 54 | 316 | 4.0 | 13.0 | 0.00 | 0.00 | 0.00 | 36 | 1017.1 |
| 20260502203003 | 54 | 315 | 3.0 | 13.0 | 0.00 | 0.00 | 0.00 | 34 | 1017.1 |
| 20260502202504 | 54 | 310 | 1.0 | 8.0 | 0.00 | 0.00 | 0.00 | 35 | 1017.1 |
| 20260502202004 | 54 | 323 | 2.0 | 9.0 | 0.00 | 0.00 | 0.00 | 35 | 1017.2 |
| 20260502201503 | 54 | 321 | 2.0 | 12.0 | 0.00 | 0.00 | 0.00 | 34 | 1017.1 |
| 20260502201003 | 54 | 322 | 2.0 | 12.0 | 0.00 | 0.00 | 0.00 | 37 | 1017.2 |
| 20260502200504 | 54 | 325 | 3.0 | 10.0 | 0.00 | 0.00 | 0.00 | 36 | 1017.2 |
| 20260502200004 | 54 | 318 | 2.0 | 13.0 | 0.00 | 0.00 | 0.00 | 34 | 1017.3 |
| 20260502195504 | 55 | 317 | 1.0 | 13.0 | 0.00 | 0.00 | 0.00 | 34 | 1017.3 |
| 20260502195003 | 55 | 307 | 1.0 | 11.0 | 0.00 | 0.00 | 0.00 | 36 | 1017.3 |
| 20260502194503 | 54 | 277 | 3.0 | 11.0 | 0.00 | 0.00 | 0.00 | 38 | 1017.4 |
| 20260502194004 | 54 | 292 | 4.0 | 15.0 | 0.00 | 0.00 | 0.00 | 39 | 1017.3 |
| 20260502193504 | 53 | 316 | 2.0 | 15.0 | 0.00 | 0.00 | 0.00 | 36 | 1017.4 |
| 20260502193003 | 53 | 322 | 1.0 | 9.0 | 0.00 | 0.00 | 0.00 | 38 | 1017.5 |
| 20260502192503 | 54 | 328 | 1.0 | 9.0 | 0.00 | 0.00 | 0.00 | 34 | 1017.6 |
| 20260502192003 | 54 | 333 | 2.0 | 11.0 | 0.00 | 0.00 | 0.00 | 34 | 1017.6 |
| 20260502191504 | 54 | 332 | 1.0 | 11.0 | 0.00 | 0.00 | 0.00 | 37 | 1017.6 |
| 20260502191004 | 54 | 328 | 1.0 | 7.0 | 0.00 | 0.00 | 0.00 | 42 | 1017.6 |
| 20260502190503 | 53 | 329 | 2.0 | 12.0 | 0.00 | 0.00 | 0.00 | 35 | 1017.7 |
| 20260502190004 | 54 | 324 | 3.0 | 12.0 | 0.00 | 0.00 | 0.00 | 36 | 1017.8 |
| 20260502185504 | 54 | 320 | 4.0 | 12.0 | 0.00 | 0.00 | 0.00 | 36 | 1017.7 |
| 20260502185004 | 54 | 317 | 4.0 | 14.0 | 0.00 | 0.00 | 0.00 | 37 | 1017.8 |
| 20260502184503 | 55 | 319 | 3.0 | 14.0 | 0.00 | 0.00 | 0.00 | 38 | 1017.8 |
| 20260502184003 | 54 | 324 | 3.0 | 11.0 | 0.00 | 0.00 | 0.00 | 41 | 1017.8 |
| 20260502183504 | 54 | 311 | 4.0 | 14.0 | 0.00 | 0.00 | 0.00 | 38 | 1017.8 |
| 20260502183004 | 54 | 304 | 5.0 | 15.0 | 0.00 | 0.00 | 0.00 | 41 | 1017.7 |
| 20260502182503 | 53 | 310 | 6.0 | 15.0 | 0.00 | 0.00 | 0.00 | 40 | 1017.9 |
| 20260502182003 | 53 | 314 | 5.0 | 18.0 | 0.00 | 0.00 | 0.00 | 38 | 1018.0 |
| 20260502181503 | 53 | 314 | 3.0 | 17.0 | 0.00 | 0.00 | 0.00 | 38 | 1018.0 |
| 20260502181003 | 53 | 316 | 4.0 | 12.0 | 0.00 | 0.00 | 0.00 | 37 | 1018.1 |
| 20260502180504 | 53 | 318 | 3.0 | 12.0 | 0.00 | 0.00 | 0.00 | 38 | 1018.0 |
| 20260502170503 | 53 | 324 | 2.0 | 11.0 | 0.00 | 0.00 | 0.00 | 38 | 1018.5 |
| 20260502164004 | 53 | 314 | 1.0 | 10.0 | 0.00 | 0.00 | 0.00 | 41 | 1018.6 |
| 20260502163503 | 53 | 316 | 2.0 | 10.0 | 0.00 | 0.00 | 0.00 | 40 | 1018.6 |
| 20260502163003 | 53 | 314 | 1.0 | 10.0 | 0.00 | 0.00 | 0.00 | 41 | 1018.7 |
| 20260502162503 | 53 | 295 | 2.0 | 9.0 | 0.00 | 0.00 | 0.00 | 39 | 1018.8 |
| 20260502162004 | 53 | 304 | 4.0 | 13.0 | 0.00 | 0.00 | 0.00 | 42 | 1018.9 |
| 20260502161505 | 53 | 316 | 2.0 | 13.0 | 0.00 | 0.00 | 0.00 | 36 | 1018.9 |
| 20260502161004 | 52 | 53 | 1.0 | 7.0 | 0.00 | 0.00 | 0.00 | 40 | 1018.9 |
| 20260502160503 | 52 | 52 | 1.0 | 7.0 | 0.00 | 0.00 | 0.00 | 39 | 1018.8 |
| 20260502152005 | 51 | 314 | 2.0 | 8.0 | 0.00 | 0.00 | 0.00 | 38 | 1018.9 |
| 20260502151503 | 51 | 315 | 2.0 | 7.0 | 0.00 | 0.00 | 0.00 | 37 | 1018.8 |
| 20260502151004 | 51 | 312 | 3.0 | 12.0 | 0.00 | 0.00 | 0.00 | 40 | 1018.7 |
| 20260502150504 | 51 | 313 | 2.0 | 12.0 | 0.00 | 0.00 | 0.00 | 39 | 1018.8 |
| 20260502130503 | 44 | 50 | 0.0 | 5.0 | 0.00 | 0.00 | 0.00 | 48 | 1018.5 |
| 20260502123504 | 42 | 54 | 0.0 | 6.0 | 0.00 | 0.00 | 0.00 | 55 | 1018.2 |
| 20260502123003 | 42 | 52 | 0.0 | 6.0 | 0.00 | 0.00 | 0.00 | 57 | 1018.1 |
| 20260502122503 | 42 | 54 | 0.0 | 6.0 | 0.00 | 0.00 | 0.00 | 56 | 1018.0 |
| 20260502122005 | 42 | 60 | 0.0 | 4.0 | 0.00 | 0.00 | 0.00 | 58 | 1017.9 |
| 20260502121503 | 42 | 60 | 0.0 | 4.0 | 0.00 | 0.00 | 0.00 | 60 | 1017.9 |
| 20260502121003 | 42 | 60 | 0.0 | 4.0 | 0.00 | 0.00 | 0.00 | 61 | 1017.9 |
| 20260502120503 | 41 | 60 | 0.0 | 4.0 | 0.00 | 0.00 | 0.00 | 60 | 1017.8 |
| 20260502115503 | 41 | 0 | 0.0 | 0.0 | 0.00 | 0.00 | 0.00 | 64 | 1017.8 |
| 20260502115004 | 41 | 0 | 0.0 | 0.0 | 0.00 | 0.00 | 0.00 | 65 | 1017.7 |
| 20260502114503 | 41 | 0 | 0.0 | 0.0 | 0.00 | 0.00 | 0.00 | 66 | 1017.6 |
| 20260502114004 | 41 | 0 | 0.0 | 0.0 | 0.00 | 0.00 | 0.00 | 68 | 1017.6 |
| 20260502113504 | 41 | 0 | 0.0 | 0.0 | 0.00 | 0.00 | 0.00 | 69 | 1017.6 |
| 20260502113005 | 41 | 0 | 0.0 | 0.0 | 0.00 | 0.00 | 0.00 | 70 | 1017.5 |
| 20260502112503 | 41 | 0 | 0.0 | 0.0 | 0.00 | 0.00 | 0.00 | 70 | 1017.5 |
| 20260502112003 | 41 | 0 | 0.0 | 0.0 | 0.00 | 0.00 | 0.00 | 71 | 1017.5 |
| 20260502111504 | 41 | 0 | 0.0 | 0.0 | 0.00 | 0.00 | 0.00 | 71 | 1017.5 |
| 20260502111003 | 41 | 0 | 0.0 | 0.0 | 0.00 | 0.00 | 0.00 | 72 | 1017.3 |
| 20260502110504 | 41 | 0 | 0.0 | 0.0 | 0.00 | 0.00 | 0.00 | 72 | 1017.4 |
| 20260502110004 | 40 | 0 | 0.0 | 0.0 | 0.00 | 0.00 | 0.00 | 73 | 1017.4 |
| 20260502105503 | 40 | 0 | 0.0 | 0.0 | 0.00 | 0.00 | 0.00 | 74 | 1017.5 |
| 20260502105003 | 40 | 0 | 0.0 | 0.0 | 0.00 | 0.00 | 0.00 | 74 | 1017.5 |
| 20260502104503 | 40 | 0 | 0.0 | 0.0 | 0.00 | 0.00 | 0.00 | 75 | 1017.6 |
| 20260502104003 | 40 | 0 | 0.0 | 0.0 | 0.00 | 0.00 | 0.00 | 76 | 1017.6 |
| 20260502103505 | 40 | 0 | 0.0 | 0.0 | 0.00 | 0.00 | 0.00 | 77 | 1017.6 |
| 20260502103004 | 40 | 0 | 0.0 | 0.0 | 0.00 | 0.00 | 0.00 | 77 | 1017.6 |
| 20260502102504 | 40 | 0 | 0.0 | 0.0 | 0.00 | 0.00 | 0.00 | 78 | 1017.6 |
| 20260502102004 | 39 | 0 | 0.0 | 0.0 | 0.00 | 0.00 | 0.00 | 79 | 1017.6 |
| 20260502101504 | 39 | 0 | 0.0 | 0.0 | 0.00 | 0.00 | 0.00 | 80 | 1017.6 |
| 20260502101004 | 39 | 0 | 0.0 | 0.0 | 0.00 | 0.00 | 0.00 | 81 | 1017.6 |
| 20260502100504 | 39 | 0 | 0.0 | 0.0 | 0.00 | 0.00 | 0.00 | 81 | 1017.6 |
| 20260502091505 | 38 | 0 | 0.0 | 0.0 | 0.00 | 0.00 | 0.00 | 81 | 1017.1 |
| 20260502091006 | 38 | 0 | 0.0 | 0.0 | 0.00 | 0.00 | 0.00 | 81 | 1017.1 |
| 20260502090504 | 38 | 0 | 0.0 | 0.0 | 0.00 | 0.00 | 0.00 | 80 | 1017.2 |
| 20260502071504 | 39 | 0 | 0.0 | 0.0 | 0.00 | 0.00 | 0.00 | 81 | 1017.1 |
| 20260502071003 | 40 | 0 | 0.0 | 0.0 | 0.00 | 0.00 | 0.00 | 81 | 1017.2 |
| 20260502070504 | 39 | 0 | 0.0 | 0.0 | 0.00 | 0.00 | 0.00 | 81 | 1017.1 |
| 20260502070004 | 39 | 0 | 0.0 | 0.0 | 0.00 | 0.00 | 0.00 | 80 | 1017.2 |
| 20260502065503 | 39 | 0 | 0.0 | 0.0 | 0.00 | 0.00 | 0.00 | 80 | 1017.3 |
| 20260502065003 | 39 | 0 | 0.0 | 0.0 | 0.00 | 0.00 | 0.00 | 80 | 1017.3 |
| 20260502064503 | 39 | 0 | 0.0 | 0.0 | 0.00 | 0.00 | 0.00 | 80 | 1017.3 |
| 20260502064003 | 39 | 0 | 0.0 | 0.0 | 0.00 | 0.00 | 0.00 | 80 | 1017.4 |
| 20260502063504 | 39 | 0 | 0.0 | 0.0 | 0.00 | 0.00 | 0.00 | 80 | 1017.4 |
| 20260502063005 | 39 | 0 | 0.0 | 0.0 | 0.00 | 0.00 | 0.00 | 80 | 1017.4 |
| 20260502062505 | 40 | 0 | 0.0 | 0.0 | 0.00 | 0.00 | 0.00 | 80 | 1017.4 |
| 20260502062004 | 40 | 0 | 0.0 | 0.0 | 0.00 | 0.00 | 0.00 | 80 | 1017.3 |
| 20260502061503 | 40 | 0 | 0.0 | 0.0 | 0.00 | 0.00 | 0.00 | 79 | 1017.5 |
| 20260502061003 | 40 | 0 | 0.0 | 0.0 | 0.00 | 0.00 | 0.00 | 79 | 1017.4 |
| 20260502060503 | 40 | 0 | 0.0 | 0.0 | 0.00 | 0.00 | 0.00 | 79 | 1017.4 |
| 20260502060004 | 40 | 0 | 0.0 | 0.0 | 0.00 | 0.00 | 0.00 | 79 | 1017.5 |
| 20260502055503 | 40 | 0 | 0.0 | 0.0 | 0.00 | 0.00 | 0.00 | 79 | 1017.7 |
| 20260502055003 | 40 | 0 | 0.0 | 0.0 | 0.00 | 0.00 | 0.00 | 79 | 1017.6 |
| 20260502054503 | 40 | 0 | 0.0 | 0.0 | 0.00 | 0.00 | 0.00 | 79 | 1017.7 |
| 20260502054003 | 40 | 0 | 0.0 | 0.0 | 0.00 | 0.00 | 0.00 | 79 | 1017.6 |
| 20260502053504 | 40 | 0 | 0.0 | 0.0 | 0.00 | 0.00 | 0.00 | 79 | 1017.6 |
| 20260502053004 | 41 | 0 | 0.0 | 0.0 | 0.00 | 0.00 | 0.00 | 78 | 1017.5 |
| 20260502052504 | 41 | 0 | 0.0 | 0.0 | 0.00 | 0.00 | 0.00 | 78 | 1017.5 |
| 20260502052003 | 41 | 0 | 0.0 | 0.0 | 0.00 | 0.00 | 0.00 | 78 | 1017.4 |
| 20260502051503 | 41 | 0 | 0.0 | 0.0 | 0.00 | 0.00 | 0.00 | 78 | 1017.4 |
| 20260502051004 | 41 | 0 | 0.0 | 0.0 | 0.00 | 0.00 | 0.00 | 78 | 1017.3 |
| 20260502050504 | 41 | 0 | 0.0 | 0.0 | 0.00 | 0.00 | 0.00 | 78 | 1017.3 |
| 20260502050004 | 41 | 0 | 0.0 | 0.0 | 0.00 | 0.00 | 0.00 | 78 | 1017.3 |
| 20260502045504 | 41 | 0 | 0.0 | 0.0 | 0.00 | 0.00 | 0.00 | 78 | 1017.3 |
| 20260502045003 | 42 | 0 | 0.0 | 0.0 | 0.00 | 0.00 | 0.00 | 78 | 1017.3 |
| 20260502044503 | 42 | 0 | 0.0 | 0.0 | 0.00 | 0.00 | 0.00 | 78 | 1017.3 |
| 20260502044004 | 42 | 0 | 0.0 | 0.0 | 0.00 | 0.00 | 0.00 | 77 | 1017.3 |
| 20260502043504 | 42 | 0 | 0.0 | 0.0 | 0.00 | 0.00 | 0.00 | 78 | 1017.4 |
| 20260502043003 | 42 | 0 | 0.0 | 0.0 | 0.00 | 0.00 | 0.00 | 77 | 1017.4 |
| 20260502042503 | 42 | 0 | 0.0 | 0.0 | 0.00 | 0.00 | 0.00 | 77 | 1017.4 |
| 20260502042004 | 42 | 0 | 0.0 | 0.0 | 0.00 | 0.00 | 0.00 | 77 | 1017.4 |
| 20260502041503 | 42 | 0 | 0.0 | 0.0 | 0.00 | 0.00 | 0.00 | 77 | 1017.4 |
| 20260502041004 | 43 | 0 | 0.0 | 0.0 | 0.00 | 0.00 | 0.00 | 77 | 1017.3 |
| 20260502040504 | 43 | 0 | 0.0 | 0.0 | 0.00 | 0.00 | 0.00 | 77 | 1017.3 |
| 20260502040004 | 43 | 0 | 0.0 | 0.0 | 0.00 | 0.00 | 0.00 | 76 | 1017.4 |
| 20260502035503 | 43 | 0 | 0.0 | 0.0 | 0.00 | 0.00 | 0.00 | 76 | 1017.4 |
| 20260502035003 | 43 | 0 | 0.0 | 0.0 | 0.00 | 0.00 | 0.00 | 76 | 1017.4 |
| 20260502034504 | 44 | 0 | 0.0 | 0.0 | 0.00 | 0.00 | 0.00 | 76 | 1017.4 |
| 20260502034004 | 44 | 0 | 0.0 | 0.0 | 0.00 | 0.00 | 0.00 | 76 | 1017.4 |
| 20260502033503 | 44 | 0 | 0.0 | 0.0 | 0.00 | 0.00 | 0.00 | 75 | 1017.3 |
| 20260502033003 | 44 | 0 | 0.0 | 0.0 | 0.00 | 0.00 | 0.00 | 75 | 1017.4 |
| 20260502032503 | 44 | 0 | 0.0 | 0.0 | 0.00 | 0.00 | 0.00 | 75 | 1017.3 |
| 20260502032004 | 44 | 0 | 0.0 | 0.0 | 0.00 | 0.00 | 0.00 | 75 | 1017.3 |
| 20260502031503 | 45 | 0 | 0.0 | 0.0 | 0.00 | 0.00 | 0.00 | 75 | 1017.3 |
| 20260502031003 | 45 | 0 | 0.0 | 0.0 | 0.00 | 0.00 | 0.00 | 75 | 1017.4 |
| 20260502030504 | 45 | 0 | 0.0 | 0.0 | 0.00 | 0.00 | 0.00 | 75 | 1017.5 |
| 20260502030004 | 45 | 0 | 0.0 | 0.0 | 0.00 | 0.00 | 0.00 | 75 | 1017.5 |
| 20260502025504 | 45 | 0 | 0.0 | 0.0 | 0.00 | 0.00 | 0.00 | 75 | 1017.5 |
| 20260502025004 | 45 | 0 | 0.0 | 0.0 | 0.00 | 0.00 | 0.00 | 75 | 1017.5 |
| 20260502024503 | 46 | 0 | 0.0 | 0.0 | 0.00 | 0.00 | 0.00 | 75 | 1017.4 |
| 20260502024003 | 46 | 0 | 0.0 | 0.0 | 0.00 | 0.00 | 0.00 | 75 | 1017.2 |
| 20260502023504 | 46 | 0 | 0.0 | 0.0 | 0.00 | 0.00 | 0.00 | 74 | 1017.1 |
| 20260502023004 | 46 | 0 | 0.0 | 0.0 | 0.00 | 0.00 | 0.00 | 74 | 1017.1 |
| 20260502022504 | 46 | 0 | 0.0 | 0.0 | 0.00 | 0.00 | 0.00 | 74 | 1017.0 |
| 20260502022005 | 46 | 0 | 0.0 | 0.0 | 0.00 | 0.00 | 0.00 | 74 | 1016.9 |
| 20260502021503 | 46 | 0 | 0.0 | 0.0 | 0.00 | 0.00 | 0.00 | 74 | 1016.9 |
| 20260502021004 | 46 | 0 | 0.0 | 0.0 | 0.00 | 0.00 | 0.00 | 73 | 1016.8 |
| 20260502020505 | 46 | 0 | 0.0 | 0.0 | 0.00 | 0.00 | 0.00 | 72 | 1016.9 |
| 20260502020003 | 46 | 0 | 0.0 | 0.0 | 0.00 | 0.00 | 0.00 | 72 | 1016.7 |
| 20260502015504 | 46 | 0 | 0.0 | 0.0 | 0.00 | 0.00 | 0.00 | 72 | 1016.7 |
| 20260502015005 | 46 | 0 | 0.0 | 0.0 | 0.00 | 0.00 | 0.00 | 71 | 1016.6 |